STARLINK-32803, 63024

Orbit data source: Space-Track

STARLINK-32803, 63024 is a payload satellite owned by SpaceX/Seattle (US) in LEO that was launched on Sat, 15 Feb 2025 UTC via an FALCON 9 launch vehicle from the Air Force Eastern Test Range (AFETR). Payload-class satellites include a variety of spacecraft equipped with specific instruments for various scientific and technological missions. These include communications satellites like Starlink; space stations such as the ISS; scientific satellites like the Hubble; Earth observation satellites from companies like Planet Labs, Umbra, and HawkEye 360; GPS; miniature CubeSats for education and research; and military/defense satellites.

Loading next visibility...
Identifier
63024, 2025-032V
Orbit
LEO
Country
Flag of USUS
Related business
Manufacturer
SpaceX/Seattle
Mission
Operational Commercial Communications
Bus & Motor
STARLINK V2M, Unknown motor
Mass
730 kg wet, ~700 kg dry
Launch date (UTC)
2025-02-15 (8 months ago)
Launch vehicle
FALCON 9
Launch site
Air Force Eastern Test Range (AFETR)
Object type
Payload
Rocket body
Debris
Shape & HBR
Box + 2 Pan, 17.7 m
Radar Cross Section
33.884 m², Large (>1 m²)

Expand to show TLE details & history
Last TLE update: 15 hours ago

TLE from 15 hours ago
0 STARLINK-32803
1 63024U 25032V   25301.55112431  .00032659  00000-0  11903-2 0  9991
2 63024  43.0024   2.0776 0000990 273.0236  87.0503 15.27600467 40255
Epoch: 2025-10-28T13:13Z
TLE epoch observation values (Epoch: 2025-10-28T13:13:37.140Z)
Latitude
0.00003°
Longitude
126.53589°
Altitude
482.729 km
Speed
7.626 km/s
True Right ascension
00h 08m 18s
True Declination
0° 00' 00"
Sunlit
Object was in full shadow at epoch
Visualization orbit readout
Latitude
Unknown
Longitude
Unknown
Altitude
Unknown
Speed
Unknown
Apparent Right ascension
Unknown
Apparent Declination
Unknown
Sunlit
N/A
Visualization observer readout
Local Sidereal Time
23:54:08
Azimuth
Unknown
Elevation
Unknown
Doppler factor
Unknown
Orbital elements
Apogee altitude
485.612 km
Perigee altitude
484.253 km
Semi-major axis
6,863.07 km
Eccentricity
0.0001
Inclination
43.0024°
RAAN
2.0776°
Arg. of periapsis
273.0236°
True anomaly
87.06163°
Mean anomaly
87.0503°
Eccentric anomaly
87.05596°
Mean motion
3.81738 °/min
Orbital period
94.31 mins
BSTAR
0.0011903
Loading maneuver chart data...
Computing Atmospheric mass density...
Loading historical data...
Loading historical data...
Loading historical data...
Loading historical data...
Loading historical data...
Loading historical data...
Loading historical data...

Documentation

Showing up to 5 results
|